Simultaneous Nadir Overpasses (SNOs) Predictions

Prediction of SNOs between AQUA and METOP-A Satellite Orbit:

Table of predicted SNOs for the next 14.0 days since TLE Epoch: 5/2/2015
Index Date (AQUA) Time (AQUA) Lat,Lon (AQUA) SZA (AQUA ) Date (METOP-A) Time (METOP-A) Lat,Lon (METOP-A) SZA (METOP-A ) Distance(km) Time Diff (sec)
1 05/03/2015 09:02:40 -73.89,-141.30 121.77 05/03/2015 09:02:08 -73.89,-141.30 121.76 0.34 32
2 05/03/2015 09:52:09 73.98, 26.14 58.33 05/03/2015 09:52:46 73.97, 26.24 58.31 3.36 37
3 05/06/2015 04:36:53 -73.91, -74.89 122.56 05/06/2015 04:36:29 -73.88, -74.92 122.58 3.10 24
4 05/06/2015 05:26:21 73.95, 92.64 57.48 05/06/2015 05:27:07 73.96, 92.62 57.49 1.64 46
5 05/08/2015 23:21:28 73.27,-174.74 56.01 05/08/2015 23:20:22 73.21,-177.36 56.04 84.27 66
6 05/09/2015 00:11:06 -73.90, -8.44 123.35 05/09/2015 00:10:50 -73.91, -8.44 123.33 1.03 16
7 05/09/2015 01:00:34 73.95, 159.09 56.70 05/09/2015 01:01:29 73.94, 158.98 56.69 3.49 55
8 05/11/2015 18:55:47 73.61,-109.00 55.62 05/11/2015 18:54:36 73.58,-110.13 55.64 35.35 71
9 05/11/2015 19:45:19 -73.92, 57.96 124.06 05/11/2015 19:45:11 -73.92, 58.01 124.06 1.58 8
10 05/11/2015 20:34:47 73.97,-134.52 55.99 05/11/2015 20:35:50 73.96,-134.58 55.97 2.25 63
11 05/14/2015 14:30:03 73.87, -43.13 55.20 05/14/2015 14:28:51 73.84, -43.12 55.18 3.64 72
12 05/14/2015 15:19:30 -73.92, 124.41 124.76 05/14/2015 15:19:31 -73.93, 124.42 124.75 1.51 1




NCC Satellite Simultaneous Nadir Overpasses (SNOs) Prediction Service
